STARLINK-3809, 52851

Orbit data source: Space-Track

STARLINK-3809, 52851 is a payload satellite owned by SpaceX/Seattle (US) in LEO that was launched on Fri, 17 Jun 2022 UTC via an FALCON 9 launch vehicle from the Air Force Eastern Test Range (AFETR). Payload-class satellites include a variety of spacecraft equipped with specific instruments for various scientific and technological missions. These include communications satellites like Starlink; space stations such as the ISS; scientific satellites like the Hubble; Earth observation satellites from companies like Planet Labs, Umbra, and HawkEye 360; GPS; miniature CubeSats for education and research; and military/defense satellites.

Loading next visibility...
Identifier
52851, 2022-062X
Orbit
LEO
Country
Flag of USUS
Related business
Manufacturer
SpaceX/Seattle
Mission
Operational Commercial Communications
Bus & Motor
STARLINK, Unknown motor
Mass
297 kg wet, ~275 kg dry
Launch date (UTC)
2022-06-17 (3 years ago)
Launch vehicle
FALCON 9
Launch site
Air Force Eastern Test Range (AFETR)
Object type
Payload
Rocket body
Debris
Shape & HBR
Box + 1 Pan, 10.1 m
Radar Cross Section
13.562 m², Large (>1 m²)

Expand to show TLE details & history
Last TLE update: 1 day ago

TLE from 1 day ago
0 STARLINK-3809
1 52851U 22062X   25348.58470507 -.00000994  00000-0 -44373-4 0  9990
2 52851  53.2180  46.1708 0001339  97.3357 262.7788 15.08829547193077
Epoch: 2025-12-14T14:01Z
TLE epoch observation values (Epoch: 2025-12-14T14:01:58.518Z)
Latitude
0.00005°
Longitude
112.18149°
Altitude
540.789 km
Speed
7.593 km/s
True Right ascension
03h 04m 41s
True Declination
0° 00' 00"
Sunlit
Object was in full shadow at epoch
Visualization orbit readout
Latitude
Unknown
Longitude
Unknown
Altitude
Unknown
Speed
Unknown
Apparent Right ascension
Unknown
Apparent Declination
Unknown
Sunlit
N/A
Visualization observer readout
Local Sidereal Time
15:08:16
Azimuth
Unknown
Elevation
Unknown
Doppler factor
Unknown
Orbital elements
Apogee altitude
540.947 km
Perigee altitude
539.094 km
Semi-major axis
6,918.157 km
Eccentricity
0.00013
Inclination
53.218°
RAAN
46.1708°
Arg. of periapsis
97.3357°
True anomaly
262.76358°
Mean anomaly
262.7788°
Eccentric anomaly
262.77119°
Mean motion
3.77188 °/min
Orbital period
95.44 mins
BSTAR
-0.000044373
Loading maneuver chart data...
Computing Atmospheric mass density...
Loading historical data...
Loading historical data...
Loading historical data...
Loading historical data...
Loading historical data...
Loading historical data...
Loading historical data...

Documentation

Showing up to 5 results
|